Regional Weather Roundup
Issued by NWS

Home | Current Version | Previous Version | Graphics & Text | Print | Product List | Glossary On
Versions: 1 2 3 4 5 6 7 8 9 10 11 12 13 14 15 16 17 18 19 20 21 22 23 24 25 26 27 28 29 30 31 32 33 34 35 36 37 38 39 40 41 42 43 44 45 46 47 48 49 50
000
ASUS43 KIND 260309
RWRIN

WEATHER ROUNDUP FOR INDIANA
NATIONAL WEATHER SERVICE INDIANAPOLIS IN
1100 PM EDT SAT MAR 25 2017

NOTE: "FAIR" INDICATES FEW OR NO CLOUDS BELOW 12,000 FEET WITH NO
SIGNIFICANT WEATHER AND/OR OBSTRUCTIONS TO VISIBILITY.

* - STATION DOES NOT REPORT WEATHER SUCH AS PRECIPITATION OR FOG.

+ - STATION NOT QUALITY CONTROLLED BY THE NATIONAL WEATHER SERVICE.
    USE DATA WITH CAUTION...ESPECIALLY DEWPOINT AND RELATIVE
    HUMIDITY OBSERVATIONS.

INZ001>003-010>013-019-020-260400-
NORTHWEST INDIANA

CITY           SKY/WX    TMP DP  RH WIND       PRES   REMARKS
GARY /AIRPORT/ CLOUDY    48  46  93 CALM      29.98S FOG
KNOX *+        CLOUDY    50  36  57 E12       30.00S
LA PORTE +     CLOUDY    49  47  92 E10       30.01S
MICHIGAN CITY+ CLOUDY    50  46  87 E8        30.00F
MONTICELLO +   RAIN      56  55  94 E7        29.98R
RENSSELAER +   DRIZZLE   55  54  94 E12       29.97S
VALPARAISO     LGT RAIN  53  51  93 E9        30.00S FOG

$$

LMZ046-743>745-260400-
SOUTHERN LAKE MICHIGAN

STATION/POSITION TIME  TEMP    WIND        PRES    WAVE
                       AIR SEA DIR/SP/G            HT
                 (UTC) (F)     (DEG/KT/KT) (MB)    (FT)
BURNS HARBOR     0240   54     120/ 14/ 21 1015.6S
MICHIGAN CITY    0240   51     110/ 15/ 18   N/A

$$

INZ004-005-014>016-021>024-260400-
NORTH CENTRAL INDIANA

CITY           SKY/WX    TMP DP  RH WIND       PRES   REMARKS
GOSHEN         CLOUDY    46  42  86 E8        30.06R
LOGANSPORT +   LGT RAIN  50  50 100 E10       30.01F
PERU/GRISSOM   LGT RAIN  52  52 100 E9        30.00S
ROCHESTER +    RAIN      52  48  87 E7        30.03S
SOUTH BEND     LGT RAIN  47 N/A N/A E16       30.03S
WARSAW +       RAIN      45  45 100 E7        30.05F

$$

INZ006>009-017-018-025>027-260400-
NORTHEAST INDIANA

CITY           SKY/WX    TMP DP  RH WIND       PRES   REMARKS
ANGOLA *+      CLOUDY    39  39 100 E13       30.07R
AUBURN +       MOCLDY    43  37  81 E10       30.08S
FORT WAYNE     MOCLDY    44  40  85 E14       30.08R
HUNTINGTON +   CLOUDY    47  45  93 NE9       30.04F
KENDALLVILLE + CLOUDY    42  40  91 E12       30.07S

$$

INZ028-029-035-036-043>045-051>053-260400-
WEST CENTRAL INDIANA

CITY           SKY/WX    TMP DP  RH WIND       PRES   REMARKS
CRAWFORDSVL +  DRIZZLE   58  56  90 SE9       29.95F
GREENCASTLE +  CLOUDY    59  54  82 SE9       29.96F
LAFAYETTE      CLOUDY    60  55  83 SE9       29.95F
TERRE HAUTE    CLOUDY    63  54  72 SE9       29.93F

$$

INZ030>032-037>040-046>048-054>057-064-065-260400-
CENTRAL INDIANA

CITY           SKY/WX    TMP DP  RH WIND       PRES   REMARKS
CP ATTERBURY + CLOUDY    59  55  88 CALM      29.99S
FISHERS *+     CLOUDY    57  57 100 CALM      29.99
FRANKFORT +    RAIN      61  58  90 S9        29.99F
GREENWOOD *+   CLOUDY    60  59  96 CALM      29.99F
INDIANAPOLIS   LGT RAIN  60  57  89 SE7       29.98F
-EAGLE CREEK   LGT RAIN  60  57  89 SE3       29.98F
KOKOMO +       LGT RAIN  53  52  96 NE7       30.02R
MARION +       LGT RAIN  55  52  91 NE7       30.03R
MT COMFORT *+  CLOUDY    59  55  88 SE6       30.00F
SHELBYVILLE    CLOUDY    61  56  83 E7        29.98F
ZIONSVILLE +   LGT RAIN  58  57  94 S10       29.99F

$$

INZ033-034-041-042-049-050-058-059-260400-
EAST CENTRAL INDIANA

CITY           SKY/WX    TMP DP  RH WIND       PRES   REMARKS
MUNCIE         CLOUDY    60  56  86 NW5       30.02R
RICHMOND +     PTCLDY    61  50  67 SE10      30.02F

$$

INZ060-061-067>069-081>083-085>088-260400-
SOUTHWEST INDIANA

CITY           SKY/WX    TMP DP  RH WIND       PRES   REMARKS
EVANSVILLE     CLOUDY    64  56  75 S9        29.93S
HUNTINGBURG *+ CLOUDY    63  56  78 S8G16     29.96R
WASHINGTON +   CLOUDY    61  54  77 CALM      29.94S

$$

INZ062-063-066-070>080-084-089>092-260400-
SOUTH CENTRAL AND SOUTHEAST INDIANA

CITY           SKY/WX    TMP DP  RH WIND       PRES   REMARKS
BEDFORD +      MOCLDY   N/A N/A N/A SE6       29.96F
BLOOMINGTON    CLOUDY    59  55  87 SE7       29.96F
MADISON *+     PTCLDY    63  52  67 SE5       30.03F
NORTH VERNON + LGT RAIN N/A N/A N/A CALM      30.01F
SEYMOUR +      PTCLDY    59  57  94 E6        29.99S

$$




USA.gov is the U.S. government's official web portal to all federal, state and local government web resources and services.